Time,TemperatureF,DewpointF,PressureIn,WindDirection,WindDirectionDegrees,WindSpeedMPH,WindSpeedGustMPH,Humidity,HourlyPrecipIn,Conditions,Clouds,dailyrainin,SoftwareType,DateUTC
2013-01-01 00:01:00,36.0,26.1,29.80,WSW,257,2.0,12.0,67,0.00,,,0.03,Wunderground PWS Mod,2013-01-01 05:01:00,
2013-01-01 00:02:00,36.0,26.1,29.80,WNW,289,2.0,12.0,67,0.00,,,0.03,Wunderground PWS Mod,2013-01-01 05:02:00,
2013-01-01 00:05:00,36.1,25.8,29.80,West,268,3.0,7.0,66,0.00,,,0.00,Wunderground PWS Mod,2013-01-01 05:05:00,
2013-01-01 00:06:00,36.1,25.8,29.80,WNW,286,3.0,7.0,66,0.00,,,0.00,Wunderground PWS Mod,2013-01-01 05:06:00,
2013-01-01 00:11:00,36.2,25.9,29.79,West,275,3.0,7.0,66,0.00,,,0.00,Wunderground PWS Mod,2013-01-01 05:11:00,
2013-01-01 00:14:00,36.2,25.2,29.79,West,270,3.0,9.0,64,0.00,,,0.00,Wunderground PWS Mod,2013-01-01 05:14:00,
2013-01-01 00:16:00,36.2,25.9,29.80,West,262,3.0,7.0,66,0.00,,,0.00,Wunderground PWS Mod,2013-01-01 05:16:00,
2013-01-01 00:21:00,36.0,25.7,29.79,West,278,3.0,7.0,66,0.00,,,0.00,Wunderground PWS Mod,2013-01-01 05:21:00,
2013-01-01 00:27:00,36.1,25.8,29.79,WNW,302,3.0,7.0,66,0.00,,,0.00,Wunderground PWS Mod,2013-01-01 05:27:00,
2013-01-01 00:33:00,36.2,25.2,29.79,WNW,284,4.0,7.0,64,0.00,,,0.00,Wunderground PWS Mod,2013-01-01 05:33:00,
2013-01-01 00:38:00,36.2,25.2,29.79,SW,217,4.0,7.0,64,0.00,,,0.00,Wunderground PWS Mod,2013-01-01 05:38:00,
2013-01-01 00:44:00,36.1,25.5,29.78,West,281,3.0,7.0,65,0.00,,,0.00,Wunderground PWS Mod,2013-01-01 05:44:00,
2013-01-01 00:49:00,36.2,25.6,29.79,West,276,3.0,7.0,65,0.00,,,0.00,Wunderground PWS Mod,2013-01-01 05:49:00,
2013-01-01 00:55:00,36.1,25.1,29.78,West,267,3.0,7.0,64,0.00,,,0.00,Wunderground PWS Mod,2013-01-01 05:55:00,
2013-01-01 01:00:00,36.2,25.6,29.78,West,265,3.0,7.0,65,0.00,,,0.00,Wunderground PWS Mod,2013-01-01 06:00:00,
2013-01-01 01:05:00,36.2,25.6,29.79,WNW,287,3.0,7.0,65,0.00,,,0.00,Wunderground PWS Mod,2013-01-01 06:05:00,
2013-01-01 01:11:00,36.2,25.9,29.78,West,268,3.0,7.0,66,0.00,,,0.00,Wunderground PWS Mod,2013-01-01 06:11:00,
2013-01-01 01:16:00,36.1,25.5,29.77,West,273,3.0,7.0,65,0.00,,,0.00,Wunderground PWS Mod,2013-01-01 06:16:00,
2013-01-01 01:22:00,36.1,25.5,29.78,West,279,3.0,7.0,65,0.00,,,0.00,Wunderground PWS Mod,2013-01-01 06:22:00,
2013-01-01 01:27:00,36.3,25.7,29.78,West,271,3.0,7.0,65,0.00,,,0.00,Wunderground PWS Mod,2013-01-01 06:27:00,
2013-01-01 01:32:00,36.2,25.6,29.79,West,276,4.0,7.0,65,0.00,,,0.00,Wunderground PWS Mod,2013-01-01 06:32:00,
2013-01-01 01:37:00,36.2,25.6,29.79,West,270,4.0,7.0,65,0.00,,,0.00,Wunderground PWS Mod,2013-01-01 06:37:00,
2013-01-01 01:44:00,36.2,25.6,29.79,West,265,3.0,7.0,65,0.00,,,0.00,Wunderground PWS Mod,2013-01-01 06:44:00,
2013-01-01 01:49:00,36.1,25.5,29.78,West,263,3.0,7.0,65,0.00,,,0.00,Wunderground PWS Mod,2013-01-01 06:49:00,
2013-01-01 01:54:00,36.2,25.6,29.78,WSW,254,4.0,7.0,65,0.00,,,0.00,Wunderground PWS Mod,2013-01-01 06:54:00,
2013-01-01 02:00:00,36.1,25.5,29.78,West,275,3.0,7.0,65,0.00,,,0.00,Wunderground PWS Mod,2013-01-01 07:00:00,
2013-01-01 02:05:00,36.1,25.8,29.78,West,271,3.0,7.0,66,0.00,,,0.00,Wunderground PWS Mod,2013-01-01 07:05:00,
2013-01-01 02:10:00,35.9,26.0,29.79,West,275,3.0,7.0,67,0.00,,,0.00,Wunderground PWS Mod,2013-01-01 07:10:00,
2013-01-01 02:15:00,35.8,25.9,29.79,West,273,2.0,7.0,67,0.00,,,0.00,Wunderground PWS Mod,2013-01-01 07:15:00,
2013-01-01 02:21:00,35.8,25.9,29.79,West,265,3.0,7.0,67,0.00,,,0.00,Wunderground PWS Mod,2013-01-01 07:21:00,
2013-01-01 02:26:00,35.8,25.5,29.79,West,275,3.0,7.0,66,0.00,,,0.00,Wunderground PWS Mod,2013-01-01 07:26:00,
2013-01-01 02:31:00,35.8,25.5,29.79,West,275,4.0,7.0,66,0.00,,,0.00,Wunderground PWS Mod,2013-01-01 07:31:00,
2013-01-01 02:36:00,35.7,25.8,29.78,West,267,3.0,7.0,67,0.00,,,0.00,Wunderground PWS Mod,2013-01-01 07:36:00,
2013-01-01 02:42:00,35.7,25.8,29.78,West,271,3.0,7.0,67,0.00,,,0.00,Wunderground PWS Mod,2013-01-01 07:42:00,
2013-01-01 02:47:00,35.6,26.1,29.78,West,267,3.0,7.0,68,0.00,,,0.00,Wunderground PWS Mod,2013-01-01 07:47:00,
2013-01-01 02:52:00,35.7,25.8,29.78,West,271,3.0,7.0,67,0.00,,,0.00,Wunderground PWS Mod,2013-01-01 07:52:00,
2013-01-01 02:57:00,35.6,25.7,29.77,West,265,3.0,7.0,67,0.00,,,0.00,Wunderground PWS Mod,2013-01-01 07:57:00,
2013-01-01 03:04:00,35.5,25.6,29.77,West,281,3.0,7.0,67,0.00,,,0.00,Wunderground PWS Mod,2013-01-01 08:04:00,
2013-01-01 03:09:00,35.4,25.9,29.77,West,273,3.0,7.0,68,0.00,,,0.00,Wunderground PWS Mod,2013-01-01 08:09:00,
2013-01-01 03:14:00,35.5,26.0,29.77,West,261,2.0,7.0,68,0.00,,,0.00,Wunderground PWS Mod,2013-01-01 08:14:00,
2013-01-01 03:19:00,35.4,25.9,29.77,West,267,3.0,7.0,68,0.00,,,0.00,Wunderground PWS Mod,2013-01-01 08:19:00,
2013-01-01 03:24:00,35.3,25.8,29.77,West,270,2.0,7.0,68,0.00,,,0.00,Wunderground PWS Mod,2013-01-01 08:24:00,
2013-01-01 03:29:00,35.1,25.9,29.76,West,264,2.0,7.0,69,0.00,,,0.00,Wunderground PWS Mod,2013-01-01 08:29:00,
2013-01-01 03:34:00,35.0,25.9,29.76,West,271,3.0,7.0,69,0.00,,,0.00,Wunderground PWS Mod,2013-01-01 08:34:00,
2013-01-01 03:40:00,34.8,25.7,29.77,West,269,3.0,7.0,69,0.00,,,0.00,Wunderground PWS Mod,2013-01-01 08:40:00,
2013-01-01 03:45:00,34.7,25.9,29.77,West,275,3.0,7.0,70,0.00,,,0.00,Wunderground PWS Mod,2013-01-01 08:45:00,
2013-01-01 03:51:00,34.7,25.9,29.77,WSW,252,3.0,7.0,70,0.00,,,0.00,Wunderground PWS Mod,2013-01-01 08:51:00,
2013-01-01 03:56:00,34.6,25.8,29.77,West,273,3.0,7.0,70,0.00,,,0.00,Wunderground PWS Mod,2013-01-01 08:56:00,
2013-01-01 04:01:00,34.5,25.7,29.77,West,267,3.0,7.0,70,0.00,,,0.00,Wunderground PWS Mod,2013-01-01 09:01:00,
2013-01-01 04:07:00,34.3,25.9,29.77,West,271,3.0,6.0,71,0.00,,,0.00,Wunderground PWS Mod,2013-01-01 09:07:00,
2013-01-01 04:12:00,34.2,25.8,29.77,West,278,3.0,6.0,71,0.00,,,0.00,Wunderground PWS Mod,2013-01-01 09:12:00,
2013-01-01 04:14:00,34.5,25.7,29.77,West,270,3.0,6.0,70,0.00,,,0.00,Wunderground PWS Mod,2013-01-01 09:14:00,
2013-01-01 04:17:00,34.2,25.8,29.77,West,272,3.0,6.0,71,0.00,,,0.00,Wunderground PWS Mod,2013-01-01 09:17:00,
2013-01-01 04:24:00,34.2,25.8,29.78,West,273,3.0,6.0,71,0.00,,,0.00,Wunderground PWS Mod,2013-01-01 09:24:00,
2013-01-01 04:29:00,33.9,25.8,29.78,West,273,2.0,6.0,72,0.00,,,0.00,Wunderground PWS Mod,2013-01-01 09:29:00,
2013-01-01 04:34:00,33.7,25.6,29.78,West,273,2.0,6.0,72,0.00,,,0.00,Wunderground PWS Mod,2013-01-01 09:34:00,
2013-01-01 04:40:00,33.5,25.8,29.78,West,274,1.0,6.0,73,0.00,,,0.00,Wunderground PWS Mod,2013-01-01 09:40:00,
2013-01-01 04:45:00,33.6,25.9,29.77,West,274,1.0,6.0,73,0.00,,,0.00,Wunderground PWS Mod,2013-01-01 09:45:00,
2013-01-01 04:51:00,33.4,25.7,29.77,West,273,1.0,6.0,73,0.00,,,0.00,Wunderground PWS Mod,2013-01-01 09:51:00,
2013-01-01 04:56:00,33.3,25.9,29.77,West,273,1.0,6.0,74,0.00,,,0.00,Wunderground PWS Mod,2013-01-01 09:56:00,
2013-01-01 05:01:00,33.3,25.9,29.77,West,261,1.0,6.0,74,0.00,,,0.00,Wunderground PWS Mod,2013-01-01 10:01:00,
2013-01-01 05:06:00,33.2,25.8,29.77,West,273,2.0,6.0,74,0.00,,,0.00,Wunderground PWS Mod,2013-01-01 10:06:00,
2013-01-01 05:12:00,33.3,26.2,29.77,West,275,3.0,6.0,75,0.00,,,0.00,Wunderground PWS Mod,2013-01-01 10:12:00,
2013-01-01 05:17:00,33.6,26.2,29.78,West,280,4.0,6.0,74,0.00,,,0.00,Wunderground PWS Mod,2013-01-01 10:17:00,
2013-01-01 05:22:00,33.8,26.4,29.78,West,277,4.0,6.0,74,0.00,,,0.00,Wunderground PWS Mod,2013-01-01 10:22:00,
2013-01-01 05:28:00,33.8,26.4,29.78,West,275,3.0,6.0,74,0.00,,,0.00,Wunderground PWS Mod,2013-01-01 10:28:00,
2013-01-01 05:34:00,34.1,26.7,29.78,West,281,4.0,6.0,74,0.00,,,0.00,Wunderground PWS Mod,2013-01-01 10:34:00,
2013-01-01 05:39:00,34.3,26.9,29.78,West,269,4.0,6.0,74,0.00,,,0.00,Wunderground PWS Mod,2013-01-01 10:39:00,
2013-01-01 05:44:00,34.4,27.0,29.78,West,271,4.0,6.0,74,0.00,,,0.00,Wunderground PWS Mod,2013-01-01 10:44:00,
2013-01-01 05:50:00,34.4,27.0,29.77,West,265,4.0,6.0,74,0.00,,,0.00,Wunderground PWS Mod,2013-01-01 10:50:00,
2013-01-01 05:55:00,34.4,27.0,29.78,WSW,238,4.0,6.0,74,0.00,,,0.00,Wunderground PWS Mod,2013-01-01 10:55:00,
2013-01-01 06:01:00,34.5,27.1,29.78,West,279,4.0,6.0,74,0.00,,,0.00,Wunderground PWS Mod,2013-01-01 11:01:00,
2013-01-01 06:06:00,34.7,27.3,29.78,West,279,3.0,6.0,74,0.00,,,0.00,Wunderground PWS Mod,2013-01-01 11:06:00,
2013-01-01 06:11:00,34.8,27.4,29.77,West,271,3.0,6.0,74,0.00,,,0.00,Wunderground PWS Mod,2013-01-01 11:11:00,
2013-01-01 06:16:00,34.9,27.5,29.77,West,266,3.0,6.0,74,0.00,,,0.00,Wunderground PWS Mod,2013-01-01 11:16:00,
2013-01-01 06:22:00,35.0,27.2,29.78,West,266,3.0,6.0,73,0.00,,,0.00,Wunderground PWS Mod,2013-01-01 11:22:00,
2013-01-01 06:27:00,35.0,27.5,29.78,West,268,3.0,6.0,74,0.00,,,0.00,Wunderground PWS Mod,2013-01-01 11:27:00,
2013-01-01 06:33:00,34.9,27.1,29.78,West,269,3.0,6.0,73,0.00,,,0.00,Wunderground PWS Mod,2013-01-01 11:33:00,
2013-01-01 06:38:00,34.9,27.1,29.79,West,263,3.0,6.0,73,0.00,,,0.00,Wunderground PWS Mod,2013-01-01 11:38:00,
2013-01-01 06:44:00,35.0,27.2,29.79,West,275,3.0,6.0,73,0.00,,,0.00,Wunderground PWS Mod,2013-01-01 11:44:00,
2013-01-01 06:50:00,35.2,27.4,29.79,West,271,4.0,6.0,73,0.00,,,0.00,Wunderground PWS Mod,2013-01-01 11:50:00,
2013-01-01 06:55:00,35.4,27.6,29.79,West,271,3.0,6.0,73,0.00,,,0.00,Wunderground PWS Mod,2013-01-01 11:55:00,
2013-01-01 07:01:00,35.5,27.7,29.79,West,269,3.0,6.0,73,0.00,,,0.00,Wunderground PWS Mod,2013-01-01 12:01:00,
2013-01-01 07:06:00,35.4,27.6,29.78,West,271,2.0,6.0,73,0.00,,,0.00,Wunderground PWS Mod,2013-01-01 12:06:00,
2013-01-01 07:11:00,35.3,27.8,29.78,West,274,2.0,6.0,74,0.00,,,0.00,Wunderground PWS Mod,2013-01-01 12:11:00,
2013-01-01 07:17:00,35.2,27.7,29.78,WSW,256,2.0,6.0,74,0.00,,,0.00,Wunderground PWS Mod,2013-01-01 12:17:00,
2013-01-01 07:22:00,35.2,27.7,29.78,WSW,251,2.0,6.0,74,0.00,,,0.00,Wunderground PWS Mod,2013-01-01 12:22:00,
2013-01-01 07:28:00,35.2,27.7,29.78,WSW,254,2.0,6.0,74,0.00,,,0.00,Wunderground PWS Mod,2013-01-01 12:28:00,
2013-01-01 07:34:00,35.3,27.8,29.78,West,276,2.0,6.0,74,0.00,,,0.00,Wunderground PWS Mod,2013-01-01 12:34:00,
2013-01-01 07:40:00,35.3,27.8,29.79,West,278,2.0,6.0,74,0.00,,,0.00,Wunderground PWS Mod,2013-01-01 12:40:00,
2013-01-01 07:46:00,35.3,27.8,29.79,West,277,2.0,6.0,74,0.00,,,0.00,Wunderground PWS Mod,2013-01-01 12:46:00,
2013-01-01 07:51:00,35.4,27.9,29.79,West,272,3.0,6.0,74,0.00,,,0.00,Wunderground PWS Mod,2013-01-01 12:51:00,
2013-01-01 07:56:00,35.3,27.8,29.79,West,264,3.0,6.0,74,0.00,,,0.00,Wunderground PWS Mod,2013-01-01 12:56:00,
2013-01-01 08:02:00,35.4,27.9,29.79,West,268,3.0,6.0,74,0.00,,,0.00,Wunderground PWS Mod,2013-01-01 13:02:00,
2013-01-01 08:08:00,35.5,27.7,29.79,West,273,3.0,6.0,73,0.00,,,0.00,Wunderground PWS Mod,2013-01-01 13:08:00,
2013-01-01 08:14:00,35.7,27.9,29.80,West,278,3.0,6.0,73,0.00,,,0.00,Wunderground PWS Mod,2013-01-01 13:14:00,
2013-01-01 08:20:00,35.7,27.9,29.80,West,273,3.0,6.0,73,0.00,,,0.00,Wunderground PWS Mod,2013-01-01 13:20:00,
2013-01-01 08:25:00,35.7,27.9,29.79,West,277,3.0,6.0,73,0.00,,,0.00,Wunderground PWS Mod,2013-01-01 13:25:00,
2013-01-01 08:30:00,35.7,27.9,29.80,West,277,3.0,6.0,73,0.00,,,0.00,Wunderground PWS Mod,2013-01-01 13:30:00,
2013-01-01 08:36:00,35.8,28.0,29.80,SW,225,2.0,6.0,73,0.00,,,0.00,Wunderground PWS Mod,2013-01-01 13:36:00,
2013-01-01 08:41:00,35.9,27.7,29.80,WSW,240,2.0,6.0,72,0.00,,,0.00,Wunderground PWS Mod,2013-01-01 13:41:00,
2013-01-01 08:46:00,35.8,28.0,29.80,West,268,2.0,6.0,73,0.00,,,0.00,Wunderground PWS Mod,2013-01-01 13:46:00,
2013-01-01 08:52:00,35.8,28.0,29.80,West,277,2.0,6.0,73,0.00,,,0.00,Wunderground PWS Mod,2013-01-01 13:52:00,
2013-01-01 08:57:00,35.9,28.1,29.79,West,266,2.0,6.0,73,0.00,,,0.00,Wunderground PWS Mod,2013-01-01 13:57:00,
2013-01-01 09:03:00,35.8,28.0,29.80,West,279,1.0,6.0,73,0.00,,,0.00,Wunderground PWS Mod,2013-01-01 14:03:00,
2013-01-01 09:08:00,35.9,28.1,29.80,West,274,2.0,6.0,73,0.00,,,0.00,Wunderground PWS Mod,2013-01-01 14:08:00,
2013-01-01 09:14:00,36.2,28.4,29.79,West,265,3.0,6.0,73,0.00,,,0.00,Wunderground PWS Mod,2013-01-01 14:14:00,
2013-01-01 09:20:00,36.2,28.0,29.80,West,276,2.0,6.0,72,0.00,,,0.00,Wunderground PWS Mod,2013-01-01 14:20:00,
2013-01-01 09:25:00,36.3,28.1,29.80,WNW,283,2.0,6.0,72,0.00,,,0.00,Wunderground PWS Mod,2013-01-01 14:25:00,
2013-01-01 09:30:00,36.4,28.2,29.80,West,281,2.0,6.0,72,0.00,,,0.00,Wunderground PWS Mod,2013-01-01 14:30:00,
2013-01-01 09:35:00,36.4,28.2,29.80,WNW,287,2.0,6.0,72,0.00,,,0.00,Wunderground PWS Mod,2013-01-01 14:35:00,
2013-01-01 09:41:00,36.6,28.4,29.80,West,268,2.0,6.0,72,0.00,,,0.00,Wunderground PWS Mod,2013-01-01 14:41:00,
2013-01-01 09:46:00,36.9,28.0,29.80,NW,304,2.0,6.0,70,0.00,,,0.00,Wunderground PWS Mod,2013-01-01 14:46:00,
2013-01-01 09:51:00,37.2,28.3,29.80,West,276,2.0,6.0,70,0.00,,,0.00,Wunderground PWS Mod,2013-01-01 14:51:00,
2013-01-01 09:57:00,37.4,27.8,29.81,WNW,296,2.0,6.0,68,0.00,,,0.00,Wunderground PWS Mod,2013-01-01 14:57:00,
2013-01-01 10:03:00,37.6,27.6,29.81,WSW,257,2.0,6.0,67,0.00,,,0.01,Wunderground PWS Mod,2013-01-01 15:03:00,
2013-01-01 10:08:00,37.8,27.8,29.81,West,280,2.0,6.0,67,0.00,,,0.01,Wunderground PWS Mod,2013-01-01 15:08:00,
2013-01-01 10:14:00,37.8,27.1,29.80,NNE,27,3.0,6.0,65,0.00,,,0.01,Wunderground PWS Mod,2013-01-01 15:14:00,
2013-01-01 10:19:00,37.7,27.0,29.80,NW,320,3.0,6.0,65,0.00,,,0.01,Wunderground PWS Mod,2013-01-01 15:19:00,
2013-01-01 10:24:00,37.7,27.0,29.80,WNW,294,3.0,6.0,65,0.00,,,0.01,Wunderground PWS Mod,2013-01-01 15:24:00,
2013-01-01 10:30:00,37.7,27.4,29.80,NW,308,2.0,6.0,66,0.00,,,0.01,Wunderground PWS Mod,2013-01-01 15:30:00,
2013-01-01 10:35:00,37.7,27.0,29.80,NW,311,2.0,6.0,65,0.00,,,0.01,Wunderground PWS Mod,2013-01-01 15:35:00,
2013-01-01 10:40:00,37.8,27.1,29.80,NNW,334,2.0,6.0,65,0.00,,,0.01,Wunderground PWS Mod,2013-01-01 15:40:00,
2013-01-01 10:46:00,37.8,27.5,29.80,NW,305,1.0,6.0,66,0.00,,,0.01,Wunderground PWS Mod,2013-01-01 15:46:00,
2013-01-01 10:51:00,37.9,26.8,29.79,West,276,1.0,6.0,64,0.00,,,0.01,Wunderground PWS Mod,2013-01-01 15:51:00,
2013-01-01 10:56:00,37.9,26.4,29.79,WNW,286,2.0,6.0,63,0.00,,,0.01,Wunderground PWS Mod,2013-01-01 15:56:00,
2013-01-01 11:02:00,37.9,26.0,29.79,WNW,284,2.0,6.0,62,0.00,,,0.01,Wunderground PWS Mod,2013-01-01 16:02:00,
2013-01-01 11:07:00,37.9,26.0,29.79,NW,311,2.0,6.0,62,0.00,,,0.01,Wunderground PWS Mod,2013-01-01 16:07:00,
2013-01-01 11:13:00,37.9,26.0,29.79,NW,317,3.0,6.0,62,0.00,,,0.01,Wunderground PWS Mod,2013-01-01 16:13:00,
2013-01-01 11:18:00,37.9,26.0,29.79,WNW,302,3.0,6.0,62,0.00,,,0.01,Wunderground PWS Mod,2013-01-01 16:18:00,
2013-01-01 11:24:00,38.1,25.8,29.79,NNW,348,1.0,6.0,61,0.00,,,0.01,Wunderground PWS Mod,2013-01-01 16:24:00,
2013-01-01 11:29:00,38.1,26.2,29.79,NNW,348,2.0,6.0,62,0.00,,,0.02,Wunderground PWS Mod,2013-01-01 16:29:00,
2013-01-01 11:34:00,38.0,25.7,29.79,NNW,339,3.0,6.0,61,0.00,,,0.02,Wunderground PWS Mod,2013-01-01 16:34:00,
2013-01-01 11:40:00,37.9,25.2,29.79,WNW,284,3.0,6.0,60,0.00,,,0.02,Wunderground PWS Mod,2013-01-01 16:40:00,
2013-01-01 11:45:00,37.9,25.6,29.78,NW,317,2.0,6.0,61,0.00,,,0.02,Wunderground PWS Mod,2013-01-01 16:45:00,
2013-01-01 11:52:00,37.8,25.5,29.77,NW,311,2.0,6.0,61,0.00,,,0.02,Wunderground PWS Mod,2013-01-01 16:52:00,
2013-01-01 11:57:00,37.9,25.6,29.77,ENE,58,3.0,6.0,61,0.00,,,0.03,Wunderground PWS Mod,2013-01-01 16:57:00,
2013-01-01 12:02:00,37.9,25.6,29.76,NNE,29,2.0,6.0,61,0.00,,,0.03,Wunderground PWS Mod,2013-01-01 17:02:00,
2013-01-01 12:08:00,37.9,26.0,29.76,NW,323,2.0,7.0,62,0.00,,,0.03,Wunderground PWS Mod,2013-01-01 17:08:00,
2013-01-01 12:14:00,37.8,25.5,29.76,NNE,22,2.0,7.0,61,0.00,,,0.03,Wunderground PWS Mod,2013-01-01 17:14:00,
2013-01-01 12:20:00,37.6,25.0,29.76,NNW,333,3.0,7.0,60,0.00,,,0.03,Wunderground PWS Mod,2013-01-01 17:20:00,
2013-01-01 12:25:00,37.6,25.7,29.76,WNW,292,2.0,7.0,62,0.00,,,0.03,Wunderground PWS Mod,2013-01-01 17:25:00,
2013-01-01 12:30:00,37.7,25.8,29.76,NNW,329,1.0,7.0,62,0.00,,,0.03,Wunderground PWS Mod,2013-01-01 17:30:00,
2013-01-01 12:35:00,37.5,25.3,29.76,WNW,301,2.0,7.0,61,0.00,,,0.03,Wunderground PWS Mod,2013-01-01 17:35:00,
2013-01-01 12:40:00,37.3,25.8,29.76,NNW,343,3.0,7.0,63,0.00,,,0.03,Wunderground PWS Mod,2013-01-01 17:40:00,
2013-01-01 12:45:00,37.3,25.5,29.76,NNW,330,2.0,7.0,62,0.00,,,0.04,Wunderground PWS Mod,2013-01-01 17:45:00,
2013-01-01 12:51:00,37.1,25.7,29.77,NNE,29,2.0,7.0,63,0.00,,,0.04,Wunderground PWS Mod,2013-01-01 17:51:00,
2013-01-01 12:56:00,37.1,25.7,29.76,NW,321,2.0,7.0,63,0.00,,,0.04,Wunderground PWS Mod,2013-01-01 17:56:00,
2013-01-01 13:01:00,36.9,25.1,29.76,NW,312,2.0,7.0,62,0.00,,,0.04,Wunderground PWS Mod,2013-01-01 18:01:00,
2013-01-01 13:06:00,36.7,25.3,29.76,NW,306,2.0,7.0,63,0.00,,,0.04,Wunderground PWS Mod,2013-01-01 18:06:00,
2013-01-01 13:12:00,36.5,25.1,29.76,WNW,284,3.0,7.0,63,0.00,,,0.04,Wunderground PWS Mod,2013-01-01 18:12:00,
2013-01-01 13:17:00,36.4,24.6,29.76,NW,313,3.0,7.0,62,0.00,,,0.04,Wunderground PWS Mod,2013-01-01 18:17:00,
2013-01-01 13:22:00,36.4,25.0,29.75,WNW,293,3.0,7.0,63,0.00,,,0.04,Wunderground PWS Mod,2013-01-01 18:22:00,
2013-01-01 13:28:00,36.4,24.6,29.75,NW,324,2.0,7.0,62,0.00,,,0.04,Wunderground PWS Mod,2013-01-01 18:28:00,
2013-01-01 13:34:00,36.4,25.0,29.76,WNW,289,2.0,7.0,63,0.00,,,0.04,Wunderground PWS Mod,2013-01-01 18:34:00,
2013-01-01 13:39:00,36.4,25.0,29.76,WNW,303,2.0,7.0,63,0.00,,,0.04,Wunderground PWS Mod,2013-01-01 18:39:00,
2013-01-01 13:44:00,36.3,24.5,29.76,North,355,2.0,7.0,62,0.00,,,0.04,Wunderground PWS Mod,2013-01-01 18:44:00,
2013-01-01 13:50:00,36.2,24.4,29.75,WNW,301,2.0,7.0,62,0.00,,,0.05,Wunderground PWS Mod,2013-01-01 18:50:00,
2013-01-01 13:55:00,36.0,23.8,29.76,NW,313,3.0,7.0,61,0.00,,,0.05,Wunderground PWS Mod,2013-01-01 18:55:00,
2013-01-01 14:00:00,36.0,23.8,29.76,NNW,335,3.0,7.0,61,0.00,,,0.05,Wunderground PWS Mod,2013-01-01 19:00:00,
2013-01-01 14:06:00,35.9,23.7,29.76,NW,322,2.0,7.0,61,0.00,,,0.05,Wunderground PWS Mod,2013-01-01 19:06:00,
2013-01-01 14:11:00,35.7,23.6,29.76,NW,316,3.0,7.0,61,0.00,,,0.05,Wunderground PWS Mod,2013-01-01 19:11:00,
2013-01-01 14:16:00,35.7,23.6,29.76,WNW,283,3.0,7.0,61,0.00,,,0.05,Wunderground PWS Mod,2013-01-01 19:16:00,
2013-01-01 14:22:00,35.6,23.5,29.75,NW,323,2.0,7.0,61,0.00,,,0.05,Wunderground PWS Mod,2013-01-01 19:22:00,
2013-01-01 14:27:00,35.6,23.1,29.76,ENE,72,2.0,7.0,60,0.00,,,0.05,Wunderground PWS Mod,2013-01-01 19:27:00,
2013-01-01 14:33:00,35.5,23.0,29.75,NNW,331,3.0,7.0,60,0.00,,,0.05,Wunderground PWS Mod,2013-01-01 19:33:00,
2013-01-01 14:38:00,35.4,22.9,29.75,NNW,331,3.0,7.0,60,0.00,,,0.05,Wunderground PWS Mod,2013-01-01 19:38:00,
2013-01-01 14:44:00,35.4,22.9,29.76,NW,304,2.0,7.0,60,0.00,,,0.05,Wunderground PWS Mod,2013-01-01 19:44:00,
2013-01-01 14:50:00,35.3,22.8,29.76,NW,318,2.0,7.0,60,0.00,,,0.05,Wunderground PWS Mod,2013-01-01 19:50:00,
2013-01-01 14:55:00,35.2,22.7,29.76,NNW,330,2.0,7.0,60,0.00,,,0.05,Wunderground PWS Mod,2013-01-01 19:55:00,
2013-01-01 15:00:00,35.2,23.1,29.77,WNW,294,2.0,7.0,61,0.00,,,0.05,Wunderground PWS Mod,2013-01-01 20:00:00,
2013-01-01 15:05:00,35.1,22.6,29.76,NNW,338,2.0,7.0,60,0.00,,,0.05,Wunderground PWS Mod,2013-01-01 20:05:00,
2013-01-01 15:11:00,35.0,22.9,29.76,NW,310,2.0,7.0,61,0.00,,,0.05,Wunderground PWS Mod,2013-01-01 20:11:00,
2013-01-01 15:16:00,34.8,23.1,29.77,NNE,15,2.0,7.0,62,0.00,,,0.05,Wunderground PWS Mod,2013-01-01 20:16:00,
2013-01-01 15:21:00,34.7,23.0,29.77,NNE,33,3.0,7.0,62,0.00,,,0.05,Wunderground PWS Mod,2013-01-01 20:21:00,
2013-01-01 15:26:00,34.6,22.9,29.77,WNW,303,3.0,7.0,62,0.00,,,0.05,Wunderground PWS Mod,2013-01-01 20:26:00,
2013-01-01 15:33:00,34.4,22.3,29.77,NW,314,2.0,7.0,61,0.00,,,0.05,Wunderground PWS Mod,2013-01-01 20:33:00,
2013-01-01 15:39:00,34.2,22.1,29.77,NW,304,3.0,7.0,61,0.00,,,0.05,Wunderground PWS Mod,2013-01-01 20:39:00,
2013-01-01 15:44:00,34.0,22.0,29.77,ENE,67,3.0,7.0,61,0.00,,,0.05,Wunderground PWS Mod,2013-01-01 20:44:00,
2013-01-01 15:49:00,33.8,21.8,29.76,NW,315,3.0,7.0,61,0.00,,,0.05,Wunderground PWS Mod,2013-01-01 20:49:00,
2013-01-01 15:54:00,33.7,21.7,29.77,WNW,298,4.0,7.0,61,0.00,,,0.05,Wunderground PWS Mod,2013-01-01 20:54:00,
2013-01-01 16:00:00,33.5,21.1,29.77,NNW,335,3.0,7.0,60,0.00,,,0.05,Wunderground PWS Mod,2013-01-01 21:00:00,
2013-01-01 16:05:00,33.3,21.3,29.78,NNW,332,3.0,10.0,61,0.00,,,0.05,Wunderground PWS Mod,2013-01-01 21:05:00,
2013-01-01 16:11:00,33.1,21.1,29.79,WNW,297,2.0,10.0,61,0.00,,,0.05,Wunderground PWS Mod,2013-01-01 21:11:00,
2013-01-01 16:14:00,33.4,21.4,29.78,NW,315,3.0,10.0,61,0.00,,,0.05,Wunderground PWS Mod,2013-01-01 21:14:00,
2013-01-01 16:16:00,33.1,21.5,29.80,NW,314,2.0,10.0,62,0.00,,,0.05,Wunderground PWS Mod,2013-01-01 21:16:00,
2013-01-01 16:21:00,33.0,21.4,29.79,WNW,303,3.0,10.0,62,0.00,,,0.05,Wunderground PWS Mod,2013-01-01 21:21:00,
2013-01-01 16:27:00,32.8,21.2,29.80,North,355,2.0,10.0,62,0.00,,,0.05,Wunderground PWS Mod,2013-01-01 21:27:00,
2013-01-01 16:32:00,32.6,21.4,29.80,NW,323,2.0,10.0,63,0.00,,,0.05,Wunderground PWS Mod,2013-01-01 21:32:00,
2013-01-01 16:37:00,32.4,20.8,29.80,NNW,333,3.0,10.0,62,0.00,,,0.05,Wunderground PWS Mod,2013-01-01 21:37:00,
2013-01-01 16:44:00,32.2,20.2,29.80,NNW,331,3.0,10.0,61,0.00,,,0.05,Wunderground PWS Mod,2013-01-01 21:44:00,
2013-01-01 16:49:00,32.0,20.4,29.81,NNW,336,2.0,10.0,62,0.00,,,0.05,Wunderground PWS Mod,2013-01-01 21:49:00,
2013-01-01 16:54:00,31.7,20.2,29.82,NNW,335,1.0,10.0,62,0.00,,,0.05,Wunderground PWS Mod,2013-01-01 21:54:00,
2013-01-01 17:00:00,31.5,19.6,29.83,North,355,2.0,10.0,61,0.00,,,0.05,Wunderground PWS Mod,2013-01-01 22:00:00,
2013-01-01 17:05:00,31.3,19.8,29.83,NE,45,2.0,10.0,62,0.00,,,0.05,Wunderground PWS Mod,2013-01-01 22:05:00,
2013-01-01 17:10:00,31.0,19.5,29.83,North,5,1.0,10.0,62,0.00,,,0.05,Wunderground PWS Mod,2013-01-01 22:10:00,
2013-01-01 17:15:00,30.7,18.8,29.83,NW,308,1.0,10.0,61,0.00,,,0.05,Wunderground PWS Mod,2013-01-01 22:15:00,
2013-01-01 17:20:00,30.6,18.3,29.83,NNW,328,2.0,10.0,60,0.00,,,0.05,Wunderground PWS Mod,2013-01-01 22:20:00,
2013-01-01 17:26:00,30.5,18.6,29.82,NNW,344,2.0,10.0,61,0.00,,,0.05,Wunderground PWS Mod,2013-01-01 22:26:00,
2013-01-01 17:31:00,30.3,18.5,29.82,NW,325,1.0,10.0,61,0.00,,,0.05,Wunderground PWS Mod,2013-01-01 22:31:00,
2013-01-01 17:36:00,30.1,18.3,29.83,NW,325,1.0,10.0,61,0.00,,,0.05,Wunderground PWS Mod,2013-01-01 22:36:00,
2013-01-01 17:42:00,29.9,18.5,29.83,NW,316,0.0,10.0,62,0.00,,,0.05,Wunderground PWS Mod,2013-01-01 22:42:00,
2013-01-01 17:47:00,29.8,18.4,29.83,NW,315,1.0,10.0,62,0.00,,,0.05,Wunderground PWS Mod,2013-01-01 22:47:00,
2013-01-01 17:52:00,29.8,18.4,29.83,North,355,1.0,10.0,62,0.00,,,0.05,Wunderground PWS Mod,2013-01-01 22:52:00,
2013-01-01 17:57:00,29.8,18.0,29.85,NW,304,1.0,10.0,61,0.00,,,0.05,Wunderground PWS Mod,2013-01-01 22:57:00,
2013-01-01 18:04:00,29.7,17.9,29.85,NNW,330,1.0,10.0,61,0.00,,,0.05,Wunderground PWS Mod,2013-01-01 23:04:00,
2013-01-01 18:09:00,29.6,18.2,29.85,NW,324,0.0,10.0,62,0.00,,,0.05,Wunderground PWS Mod,2013-01-01 23:09:00,
2013-01-01 18:14:00,29.6,18.2,29.85,NNW,327,1.0,10.0,62,0.00,,,0.05,Wunderground PWS Mod,2013-01-01 23:14:00,
2013-01-01 18:20:00,29.6,17.8,29.84,NNW,343,1.0,10.0,61,0.00,,,0.05,Wunderground PWS Mod,2013-01-01 23:20:00,
2013-01-01 18:25:00,29.5,17.7,29.85,NNW,338,1.0,10.0,61,0.00,,,0.05,Wunderground PWS Mod,2013-01-01 23:25:00,
2013-01-01 18:30:00,29.5,17.7,29.85,NNW,348,2.0,10.0,61,0.00,,,0.05,Wunderground PWS Mod,2013-01-01 23:30:00,
2013-01-01 18:35:00,29.5,17.3,29.86,NW,325,2.0,10.0,60,0.00,,,0.05,Wunderground PWS Mod,2013-01-01 23:35:00,
2013-01-01 18:40:00,29.4,17.2,29.86,North,11,2.0,10.0,60,0.00,,,0.05,Wunderground PWS Mod,2013-01-01 23:40:00,
2013-01-01 18:46:00,29.4,17.2,29.86,NNW,346,1.0,10.0,60,0.00,,,0.05,Wunderground PWS Mod,2013-01-01 23:46:00,
2013-01-01 18:51:00,29.3,17.1,29.86,North,349,1.0,10.0,60,0.00,,,0.05,Wunderground PWS Mod,2013-01-01 23:51:00,
2013-01-01 18:56:00,29.2,17.0,29.86,NW,313,1.0,10.0,60,0.00,,,0.05,Wunderground PWS Mod,2013-01-01 23:56:00,
2013-01-01 19:02:00,29.2,17.0,29.86,NNW,343,2.0,10.0,60,0.00,,,0.05,Wunderground PWS Mod,2013-01-02 00:02:00,
2013-01-01 19:07:00,29.0,16.8,29.86,NE,53,2.0,10.0,60,0.00,,,0.05,Wunderground PWS Mod,2013-01-02 00:07:00,
2013-01-01 19:12:00,29.0,16.4,29.86,NW,314,2.0,10.0,59,0.00,,,0.05,Wunderground PWS Mod,2013-01-02 00:12:00,
2013-01-01 19:17:00,28.9,16.4,29.86,NW,319,2.0,10.0,59,0.00,,,0.05,Wunderground PWS Mod,2013-01-02 00:17:00,
2013-01-01 19:23:00,28.8,16.3,29.86,WNW,291,2.0,10.0,59,0.00,,,0.05,Wunderground PWS Mod,2013-01-02 00:23:00,
2013-01-01 19:28:00,28.7,16.2,29.86,NNE,12,2.0,10.0,59,0.00,,,0.05,Wunderground PWS Mod,2013-01-02 00:28:00,
2013-01-01 19:34:00,28.5,16.0,29.87,NW,306,1.0,10.0,59,0.00,,,0.05,Wunderground PWS Mod,2013-01-02 00:34:00,
2013-01-01 19:40:00,28.4,16.3,29.87,NW,323,1.0,10.0,60,0.00,,,0.05,Wunderground PWS Mod,2013-01-02 00:40:00,
2013-01-01 19:45:00,28.3,15.8,29.87,NW,315,2.0,10.0,59,0.00,,,0.05,Wunderground PWS Mod,2013-01-02 00:45:00,
2013-01-01 19:50:00,28.3,15.8,29.87,NW,326,3.0,10.0,59,0.00,,,0.05,Wunderground PWS Mod,2013-01-02 00:50:00,
2013-01-01 19:55:00,28.2,15.7,29.88,WNW,293,3.0,10.0,59,0.00,,,0.05,Wunderground PWS Mod,2013-01-02 00:55:00,
2013-01-01 20:00:00,28.1,15.2,29.87,NNW,340,2.0,10.0,58,0.00,,,0.05,Wunderground PWS Mod,2013-01-02 01:00:00,
2013-01-01 20:06:00,27.9,15.8,29.87,WNW,296,2.0,12.0,60,0.00,,,0.05,Wunderground PWS Mod,2013-01-02 01:06:00,
2013-01-01 20:11:00,27.8,15.3,29.87,North,355,2.0,12.0,59,0.00,,,0.05,Wunderground PWS Mod,2013-01-02 01:11:00,
2013-01-01 20:14:00,28.1,15.6,29.87,NW,315,2.0,12.0,59,0.00,,,0.05,Wunderground PWS Mod,2013-01-02 01:14:00,
2013-01-01 20:16:00,27.8,14.5,29.87,WNW,284,2.0,12.0,57,0.00,,,0.05,Wunderground PWS Mod,2013-01-02 01:16:00,
2013-01-01 20:22:00,27.7,13.6,29.86,NNW,333,3.0,12.0,55,0.00,,,0.05,Wunderground PWS Mod,2013-01-02 01:22:00,
2013-01-01 20:27:00,27.6,13.5,29.88,NNW,340,2.0,12.0,55,0.00,,,0.05,Wunderground PWS Mod,2013-01-02 01:27:00,
2013-01-01 20:32:00,27.5,13.8,29.87,NE,50,1.0,12.0,56,0.00,,,0.05,Wunderground PWS Mod,2013-01-02 01:32:00,
2013-01-01 20:37:00,27.4,14.1,29.88,ENE,57,1.0,12.0,57,0.00,,,0.05,Wunderground PWS Mod,2013-01-02 01:37:00,
2013-01-01 20:44:00,27.2,14.4,29.89,NE,39,1.0,12.0,58,0.00,,,0.05,Wunderground PWS Mod,2013-01-02 01:44:00,
2013-01-01 20:49:00,27.0,13.8,29.89,NNE,19,2.0,12.0,57,0.00,,,0.05,Wunderground PWS Mod,2013-01-02 01:49:00,
2013-01-01 20:54:00,26.9,14.5,29.89,WNW,303,2.0,12.0,59,0.00,,,0.05,Wunderground PWS Mod,2013-01-02 01:54:00,
2013-01-01 20:59:00,26.7,13.5,29.89,North,355,2.0,12.0,57,0.00,,,0.05,Wunderground PWS Mod,2013-01-02 01:59:00,
2013-01-01 21:04:00,26.6,13.4,29.89,NW,321,2.0,12.0,57,0.00,,,0.05,Wunderground PWS Mod,2013-01-02 02:04:00,
2013-01-01 21:10:00,26.3,13.5,29.89,NNE,26,1.0,12.0,58,0.00,,,0.05,Wunderground PWS Mod,2013-01-02 02:10:00,
2013-01-01 21:15:00,26.1,12.9,29.89,NNE,13,1.0,12.0,57,0.00,,,0.05,Wunderground PWS Mod,2013-01-02 02:15:00,
2013-01-01 21:20:00,25.9,12.3,29.90,NE,47,1.0,12.0,56,0.00,,,0.05,Wunderground PWS Mod,2013-01-02 02:20:00,
2013-01-01 21:25:00,25.7,12.2,29.90,NE,44,1.0,12.0,56,0.00,,,0.05,Wunderground PWS Mod,2013-01-02 02:25:00,
2013-01-01 21:31:00,25.5,12.0,29.90,North,360,2.0,12.0,56,0.00,,,0.05,Wunderground PWS Mod,2013-01-02 02:31:00,
2013-01-01 21:36:00,25.4,11.0,29.90,NNW,338,2.0,12.0,54,0.00,,,0.05,Wunderground PWS Mod,2013-01-02 02:36:00,
2013-01-01 21:41:00,25.2,11.3,29.90,WNW,298,2.0,12.0,55,0.00,,,0.05,Wunderground PWS Mod,2013-01-02 02:41:00,
2013-01-01 21:48:00,25.1,10.3,29.90,NNW,338,2.0,12.0,53,0.00,,,0.05,Wunderground PWS Mod,2013-01-02 02:48:00,
2013-01-01 21:54:00,24.9,10.2,29.90,NNW,338,2.0,12.0,53,0.00,,,0.05,Wunderground PWS Mod,2013-01-02 02:54:00,
2013-01-01 21:59:00,24.8,10.1,29.90,NNW,327,2.0,12.0,53,0.00,,,0.05,Wunderground PWS Mod,2013-01-02 02:59:00,
2013-01-01 22:04:00,24.6,10.3,29.90,WNW,294,2.0,12.0,54,0.00,,,0.05,Wunderground PWS Mod,2013-01-02 03:04:00,
2013-01-01 22:09:00,24.5,10.2,29.90,NW,317,1.0,12.0,54,0.00,,,0.05,Wunderground PWS Mod,2013-01-02 03:09:00,
2013-01-01 22:15:00,24.3,10.4,29.91,NW,304,1.0,12.0,55,0.00,,,0.05,Wunderground PWS Mod,2013-01-02 03:15:00,
2013-01-01 22:20:00,24.1,10.6,29.91,NW,304,1.0,12.0,56,0.00,,,0.05,Wunderground PWS Mod,2013-01-02 03:20:00,
2013-01-01 22:25:00,24.0,9.7,29.91,WNW,284,1.0,12.0,54,0.00,,,0.05,Wunderground PWS Mod,2013-01-02 03:25:00,
2013-01-01 22:31:00,23.9,9.6,29.91,NW,304,2.0,12.0,54,0.00,,,0.05,Wunderground PWS Mod,2013-01-02 03:31:00,
2013-01-01 22:36:00,23.9,8.8,29.91,NW,322,2.0,12.0,52,0.00,,,0.05,Wunderground PWS Mod,2013-01-02 03:36:00,
2013-01-01 22:41:00,23.8,8.7,29.91,NW,313,2.0,12.0,52,0.00,,,0.05,Wunderground PWS Mod,2013-01-02 03:41:00,
2013-01-01 22:47:00,23.6,8.5,29.91,NW,306,3.0,12.0,52,0.00,,,0.05,Wunderground PWS Mod,2013-01-02 03:47:00,
2013-01-01 22:52:00,23.4,8.3,29.92,NNE,15,3.0,12.0,52,0.00,,,0.05,Wunderground PWS Mod,2013-01-02 03:52:00,
2013-01-01 22:58:00,23.2,8.6,29.92,NNW,332,2.0,12.0,53,0.00,,,0.05,Wunderground PWS Mod,2013-01-02 03:58:00,
2013-01-01 23:04:00,23.0,8.4,29.92,NW,325,2.0,12.0,53,0.00,,,0.05,Wunderground PWS Mod,2013-01-02 04:04:00,
2013-01-01 23:09:00,22.9,8.7,29.92,NNW,333,1.0,12.0,54,0.00,,,0.05,Wunderground PWS Mod,2013-01-02 04:09:00,
2013-01-01 23:14:00,22.8,8.6,29.92,NNW,333,1.0,12.0,54,0.00,,,0.05,Wunderground PWS Mod,2013-01-02 04:14:00,
2013-01-01 23:19:00,22.7,8.5,29.92,WNW,295,1.0,12.0,54,0.00,,,0.05,Wunderground PWS Mod,2013-01-02 04:19:00,
2013-01-01 23:24:00,22.2,8.9,29.92,West,280,255.0,255.0,56,0.00,,,0.05,Wunderground PWS Mod,2013-01-02 04:24:00,
2013-01-01 23:30:00,22.1,8.4,29.92,WNW,292,255.0,255.0,55,0.00,,,0.05,Wunderground PWS Mod,2013-01-02 04:30:00,
2013-01-01 23:36:00,22.0,8.7,29.92,West,270,2.0,12.0,56,0.00,,,0.05,Wunderground PWS Mod,2013-01-02 04:36:00,
2013-01-01 23:41:00,21.9,9.0,29.93,WNW,286,1.0,12.0,57,0.00,,,0.05,Wunderground PWS Mod,2013-01-02 04:41:00,
2013-01-01 23:46:00,21.8,8.5,29.93,West,273,2.0,12.0,56,0.00,,,0.05,Wunderground PWS Mod,2013-01-02 04:46:00,
2013-01-01 23:51:00,21.7,8.4,29.93,WSW,248,2.0,12.0,56,0.00,,,0.05,Wunderground PWS Mod,2013-01-02 04:51:00,
2013-01-01 23:57:00,21.7,8.4,29.93,West,277,2.0,12.0,56,0.00,,,0.05,Wunderground PWS Mod,2013-01-02 04:57:00,